Terug naar catalogus

ELECTRON KICK STAGE R/B

ActiefPO
NORAD 57393·ROCKET BODY·🇺🇸 United States

Gelanceerd Jul 18, 2023 vanaf Rocket Lab Launch Complex 1

Loading…

Volgende Passages (komende 24 uur)

TLE

VersSource: Space-Track

Epoch: Sep 14, 2026, 06:13 UTC

1 57393U 23100H   26257.25938021  .00006680  00000-0  55157-3 0  9991
2 57393  99.3254 187.9515 0299291 315.3259  42.4177 14.70526065168351

Volg ELECTRON KICK STAGE R/B in realtime met AllMySat

Download on the App Store